Overview Statistics Trail Chart Weather Telemetry Raw packets
 

This is the latest recevied weather packets stored in our database for station/object KBTL-WX. If no packets are shown the sender has not sent any weather packets the latest 10 day(s).

<< 20 21 22 23 24 25 26 >>
Time Temp. Humidity Pressure Rain* Wind** Luminosity Snow
1777482035 10.56° C 79% 978.6 hPa 0 mm - - -
1777481112 10.56° C 83% 979.1 hPa 0 mm - - -
1777480231 10° C 80% 979.1 hPa 0 mm - - -
1777479312 10° C 80% 979.1 hPa 0 mm - - -
1777478436 10° C 80% 979.1 hPa 0 mm - - -
1777477512 10° C 80% 979.9 hPa 0 mm - - -
1777476627 10° C 79% 980.3 hPa 0 mm - - -
1777475712 10° C 79% 980.3 hPa 0 mm - - -
1777474836 10° C 79% 980.3 hPa 0 mm - - -
1777473912 10.56° C 80% 979.8 hPa 0 mm - - -
1777473028 10.56° C 85% 979.8 hPa 0 mm - - -
1777472113 10° C 85% 979.7 hPa 0 mm - - -
1777471238 10° C 85% 979.7 hPa 0 mm - - -
1777470312 10° C 84% 980.3 hPa 0 mm - - -
1777469431 10° C 84% 980.3 hPa 0 mm - - -
1777468512 8.89° C 84% 980.2 hPa 0 mm - - -
1777467636 8.89° C 84% 980.2 hPa 0 mm - - -
1777466712 8.89° C 87% 980.4 hPa 0 mm - - -
1777465831 9.44° C 88% 980.2 hPa 0 mm - - -
1777464912 9.44° C 88% 980.2 hPa 0 mm - - -
1777464034 9.44° C 88% 980.2 hPa 0 mm - - -
1777463113 8.89° C 86% 979.8 hPa 0.76 mm - - -
1777462228 8.89° C 89% 980.1 hPa 0.76 mm - - -
1777461312 8.89° C 89% 980.1 hPa 0 mm - - -
1777460436 8.89° C 89% 980.1 hPa 0 mm - - -

* Rain latest hour (hover to see other rain measurements)
** Current wind speed in m/s (hover to see current wind gust speed)